Wind_Speed
41 39 37 35 33 32 32 32 30 28 27 27 28 28 29 29 32 36 37 36 34 30 27 24 25 29 30 28 26 24 23 23 22 21 19 17 16 16 17 19 20 20 21 22 20 19 20 18 14 16 18 18 18 17 18 19 21 22 22 22 23 24 24 25 25 24 22 23 23 21 19 18 17 17 17 18 19 19 18 17 15 14 13 12 12 16
41 38 36 35 34 32 32 32 30 28 28 29 30 31 30 30 33 36 37 36 33 29 27 27 28 29 29 28 26 24 24 24 24 23 23 22 21 20 20 19 18 20 21 22 20 18 20 19 14 16 18 18 19 19 19 21 22 23 23 22 22 23 23 24 24 23 22 22 24 23 21 20 19 17 16 17 18 19 20 18 15 14 13 11 12 16
41 38 36 36 34 33 33 32 31 30 31 32 33 33 30 30 33 35 37 37 32 27 28 29 28 29 29 28 26 24 25 25 25 24 24 24 23 22 21 20 19 20 19 19 19 18 20 21 16 16 18 18 19 19 21 23 24 25 25 24 24 23 23 23 23 23 21 22 23 24 22 21 20 19 17 17 17 19 19 16 15 15 14 14 16 18
41 39 38 36 34 34 33 33 32 33 34 35 35 33 31 31 34 35 38 36 30 27 28 29 29 29 29 28 26 25 26 26 25 25 24 24 23 22 21 21 21 20 18 18 19 18 20 20 16 16 19 20 20 21 23 25 27 28 28 28 27 25 24 23 23 23 22 22 23 23 22 19 19 20 19 18 18 20 19 14 14 14 15 18 19 18
42 40 38 36 34 34 34 34 34 35 36 36 36 33 31 32 35 37 38 34 28 28 30 30 30 30 30 29 27 27 27 26 25 25 24 23 22 21 19 19 19 19 19 19 18 17 18 18 15 16 19 20 21 23 25 27 28 29 29 29 28 26 25 23 22 22 21 22 22 23 21 17 16 18 20 19 19 22 21 16 15 14 16 19 19 19
42 38 36 35 34 35 36 35 35 35 36 36 35 33 32 34 36 38 38 33 30 31 31 31 31 32 31 29 28 28 28 27 27 26 25 22 20 20 18 19 19 19 20 19 17 17 16 16 17 18 20 21 22 25 28 30 31 32 31 27 25 23 23 22 21 21 20 21 22 22 21 18 15 16 18 18 19 21 21 19 17 15 16 19 20 19
40 37 36 36 36 37 37 36 35 35 35 35 33 32 33 35 37 38 37 34 33 34 33 32 32 32 31 30 30 29 29 29 29 27 23 21 20 19 18 18 18 18 18 17 16 17 15 16 18 21 23 23 23 25 28 30 30 29 24 16 15 17 18 20 20 20 20 20 21 21 20 19 16 15 16 18 18 20 21 19 17 17 18 19 19 19
39 37 38 38 39 39 38 37 35 34 33 32 30 31 33 37 38 38 37 35 35 36 35 34 34 32 31 31 30 29 30 29 27 24 22 21 20 18 15 14 15 15 16 17 17 17 16 17 21 23 23 22 22 23 25 27 25 20 11 9 13 16 18 19 19 19 19 20 20 18 18 18 18 17 17 18 19 20 22 21 18 17 19 19 19 20
37 37 38 39 40 39 37 36 34 32 31 29 29 32 36 39 40 39 38 37 36 37 37 37 35 34 33 31 30 29 29 27 24 22 21 20 18 15 12 12 13 14 17 18 19 19 18 20 21 22 21 20 22 24 26 26 24 20 14 14 17 18 18 18 19 19 20 19 19 18 17 18 19 20 20 21 22 22 22 22 20 18 18 18 18 19
34 36 38 39 39 38 35 35 34 31 29 29 32 36 38 40 40 39 39 39 37 37 38 38 37 36 34 32 31 30 28 25 24 22 20 19 16 14 13 13 13 15 17 19 20 21 21 22 21 20 20 21 23 25 26 26 25 24 24 25 27 23 19 18 18 18 19 19 20 21 22 22 22 23 24 24 25 24 22 22 21 20 18 17 18 19
35 38 39 40 39 37 36 37 36 32 29 32 36 39 40 41 41 41 41 40 39 37 37 38 38 36 35 34 33 30 27 25 24 22 21 19 16 16 17 17 17 17 18 19 21 22 23 23 22 20 21 22 23 25 26 27 27 27 28 32 31 24 19 18 18 18 19 20 23 24 25 27 27 27 26 25 24 23 20 19 20 20 19 18 20 21
39 40 40 40 38 38 39 39 38 36 35 38 41 42 43 43 43 43 43 42 40 38 37 38 37 35 35 35 33 30 27 25 24 23 22 20 18 18 18 19 20 20 20 20 21 22 23 23 22 21 22 23 23 25 26 26 28 28 28 29 27 22 19 20 21 20 21 23 26 26 27 30 28 23 22 22 23 22 19 19 19 20 20 21 22 23
41 40 40 38 37 38 40 40 40 40 40 42 44 45 46 45 45 45 44 43 40 38 37 37 35 35 36 34 32 30 27 25 24 23 22 21 19 19 20 21 22 22 22 22 22 22 23 23 22 21 23 24 22 22 24 26 27 27 27 27 26 24 21 21 22 22 23 27 29 27 27 30 27 21 21 23 22 22 20 20 21 22 23 23 24 25
41 40 39 38 37 39 40 40 41 40 41 44 46 46 46 45 45 45 45 43 40 38 37 36 35 36 36 34 32 31 28 26 25 23 20 19 19 20 22 24 25 24 23 22 22 23 23 23 23 22 23 25 23 23 24 25 26 26 26 26 27 26 24 22 22 24 26 28 27 26 25 26 26 23 24 25 23 22 22 22 23 23 24 24 24 25
39 39 38 37 37 38 38 38 39 39 39 41 44 44 43 43 44 45 44 42 39 37 37 36 36 38 38 35 32 31 29 28 26 23 20 19 20 20 21 22 24 25 24 22 22 22 22 23 23 22 22 23 24 24 25 25 25 26 27 27 27 27 26 25 24 26 28 26 26 26 25 25 24 24 26 26 25 26 26 25 24 23 22 23 24 25
36 36 35 35 36 36 35 35 36 37 37 37 39 40 42 44 45 44 43 41 38 38 38 38 38 39 38 35 33 32 31 29 26 23 21 21 22 22 22 21 21 22 23 23 22 22 21 21 22 21 20 21 22 24 25 26 26 26 27 28 28 27 27 27 26 28 29 27 27 27 26 26 26 27 27 27 30 31 29 27 25 23 22 22 24 25
33 33 32 32 33 33 33 34 35 35 34 34 35 37 39 43 45 45 44 42 40 40 40 40 40 39 38 35 33 33 32 29 26 24 23 24 24 25 25 25 23 21 22 22 21 20 20 20 21 21 21 21 22 24 26 28 29 28 27 27 27 26 27 28 28 29 29 28 29 29 27 27 29 29 28 27 30 30 28 27 26 24 23 23 24 24
31 30 31 31 31 32 33 34 34 34 32 32 33 35 37 41 44 45 45 44 43 43 42 41 41 40 39 37 35 34 33 31 28 26 26 26 27 27 28 28 26 23 21 20 19 19 19 20 20 21 22 23 24 26 27 29 29 28 27 26 25 25 25 27 28 30 29 28 30 30 28 27 29 30 28 27 28 27 26 27 27 25 23 24 25 24
30 29 30 30 31 32 33 34 34 34 33 32 31 32 35 38 40 41 42 43 43 43 43 43 42 41 40 37 36 35 34 32 30 30 29 29 29 28 28 28 26 24 21 20 19 19 19 20 21 21 23 25 27 27 28 29 29 27 25 24 24 24 25 26 27 29 28 28 31 31 28 27 29 29 27 28 29 28 27 28 28 26 25 24 25 24
30 30 30 30 31 32 33 33 33 33 33 33 32 33 35 36 36 37 39 39 40 41 43 44 44 42 40 38 38 37 35 33 33 33 32 31 29 27 27 27 26 24 22 21 20 19 20 20 21 21 24 25 25 25 25 26 25 23 21 20 21 22 24 25 26 27 28 28 28 27 26 27 28 28 26 28 29 30 29 29 28 27 25 25 25 25
32 32 32 31 31 32 33 33 32 32 32 33 34 34 35 35 34 35 35 36 38 39 42 44 44 42 40 40 39 37 36 35 35 34 32 29 28 27 27 26 25 24 22 21 20 19 20 20 20 22 22 21 19 19 20 20 20 19 18 19 20 21 23 24 25 26 27 27 23 22 24 26 28 30 30 29 28 28 29 29 28 27 25 25 25 26
35 34 34 33 33 34 34 33 32 31 31 31 32 33 33 33 33 34 34 35 37 38 41 43 42 41 41 41 39 37 35 35 34 33 30 28 28 28 27 25 24 22 21 20 19 19 19 19 20 21 21 19 18 18 18 18 18 18 18 19 21 22 23 23 23 23 24 25 21 20 22 24 27 30 31 30 28 28 30 30 28 26 25 25 25 26
37 37 37 36 36 35 35 34 32 32 31 30 30 30 31 32 32 32 32 33 35 37 39 40 40 40 39 39 38 36 33 32 32 30 28 27 27 26 24 22 21 20 19 18 18 18 18 18 19 19 18 18 19 19 17 17 18 18 19 19 20 22 22 21 21 20 20 20 19 18 21 23 25 27 27 27 28 29 29 28 26 25 25 25 25 26
37 38 39 38 37 37 36 35 33 32 30 30 31 31 30 30 30 29 28 29 31 33 35 36 38 38 35 34 34 33 31 31 31 30 28 25 23 22 20 19 19 18 18 17 17 17 16 16 17 16 16 17 18 18 17 17 17 18 19 19 20 21 21 20 20 19 18 17 16 16 18 20 21 21 22 24 25 25 24 24 24 23 23 24 26 27
36 38 40 40 39 38 37 36 35 33 32 31 31 31 31 30 30 28 27 28 30 31 32 33 35 35 32 31 31 30 30 30 30 29 27 24 20 18 17 17 17 16 16 16 16 17 17 17 17 16 16 17 17 17 16 16 17 18 18 19 19 20 19 19 18 18 17 17 16 15 15 15 15 17 19 21 22 22 22 22 22 23 23 23 26 27
35 36 38 39 39 38 37 36 35 34 33 33 32 31 31 31 30 29 29 29 30 31 32 32 32 32 31 29 28 28 27 27 28 27 24 21 18 17 17 17 16 16 15 15 16 17 18 18 16 16 16 15 15 16 16 17 18 19 19 19 18 18 18 18 18 17 17 16 16 16 16 15 14 15 18 20 23 24 24 23 23 23 24 25 28 28
34 35 36 37 37 37 36 36 35 34 33 32 32 31 31 32 32 31 30 30 30 30 31 31 31 29 28 27 27 26 26 25 25 24 22 20 18 17 17 18 18 17 16 16 16 17 17 16 15 15 14 14 14 16 17 18 19 20 20 19 19 18 18 18 18 18 17 16 16 16 17 16 15 16 18 20 22 23 24 24 23 22 22 24 27 29
33 34 35 36 36 35 35 35 34 34 33 32 31 30 30 31 32 32 31 30 30 31 31 30 29 27 26 25 24 24 23 23 22 21 21 21 19 18 17 18 18 18 17 17 17 16 16 15 15 15 15 15 15 16 17 18 20 21 21 20 20 19 18 18 18 18 18 18 17 17 18 18 17 17 19 20 21 22 23 23 23 21 20 20 24 27
31 33 35 36 36 34 34 35 34 34 34 32 31 29 28 28 28 28 29 30 30 31 31 30 29 28 26 24 22 22 22 22 20 20 20 21 20 19 19 19 19 19 19 19 19 19 18 17 17 18 19 18 17 17 17 18 20 21 22 21 21 20 20 19 19 19 19 19 19 19 19 20 19 20 22 23 22 22 23 23 23 22 21 20 23 25
28 30 33 35 36 35 34 34 34 34 34 33 32 30 28 27 27 27 27 28 29 31 31 31 30 29 27 25 23 23 23 22 21 21 21 21 20 20 21 21 20 19 19 20 21 22 22 22 21 22 22 21 20 18 18 19 20 21 21 21 21 21 20 20 21 21 20 20 20 20 20 21 22 22 24 24 24 23 23 23 23 23 23 22 23 25
25 27 30 33 35 36 34 33 33 33 33 33 33 32 32 31 30 29 29 28 28 29 30 31 31 29 28 27 25 24 24 24 24 23 22 20 18 18 20 22 21 20 19 20 21 23 24 24 24 24 24 23 21 20 19 19 19 20 21 21 21 21 20 20 21 21 22 22 21 22 22 22 23 24 25 26 26 25 24 23 23 23 23 22 23 25
23 26 28 30 33 35 36 35 34 33 32 33 34 34 34 33 29 28 29 29 28 28 29 29 30 30 29 28 27 26 25 25 25 24 21 18 16 16 17 19 21 21 20 19 20 21 22 24 24 24 24 23 22 20 19 19 19 20 21 21 21 21 20 20 21 21 22 22 22 22 23 23 23 23 24 26 27 26 25 24 23 22 23 23 23 25
21 24 25 27 30 33 35 36 36 35 34 33 34 33 34 33 30 28 29 29 29 29 29 29 30 30 30 30 29 28 26 25 25 24 22 19 17 17 16 15 17 19 18 18 18 19 20 21 22 22 22 22 22 21 20 19 19 20 21 21 21 21 21 21 20 21 21 21 21 22 22 21 22 22 22 24 26 26 24 23 22 23 23 23 23 25
20 22 24 25 27 30 33 35 37 38 38 36 35 34 33 33 32 31 30 29 30 30 30 30 31 31 31 31 30 29 27 26 25 25 23 21 20 20 18 17 17 18 19 20 21 22 23 23 23 23 23 24 24 23 22 21 21 21 21 21 22 22 22 22 21 21 21 22 21 21 21 21 21 21 21 21 23 24 23 22 22 23 23 24 24 25
20 21 23 25 26 28 30 33 35 37 37 36 36 36 35 34 33 34 33 33 33 33 32 32 32 32 33 32 32 31 30 29 27 26 25 24 23 22 21 21 22 23 24 24 24 25 26 27 27 27 27 27 27 27 26 24 23 23 22 22 23 22 23 23 22 21 22 22 21 20 20 20 20 20 20 19 20 21 20 21 22 23 24 24 24 26
24 23 23 25 26 27 28 31 33 34 34 34 35 35 34 34 34 34 34 35 35 36 35 34 33 33 33 33 32 32 32 31 30 28 28 27 27 25 24 23 24 25 26 25 25 26 27 28 28 29 30 30 30 30 29 27 26 25 24 24 24 24 23 23 23 22 22 23 22 20 19 20 20 19 19 19 20 19 20 22 25 27 27 23 24 27
29 28 28 28 28 28 28 29 31 32 34 34 34 33 33 34 34 33 33 33 34 36 37 37 37 37 36 35 34 33 33 32 30 30 30 30 29 27 25 24 24 24 25 24 25 26 27 28 29 30 30 31 31 32 31 30 28 27 26 26 26 25 24 24 23 23 22 23 24 21 19 19 18 18 18 19 20 21 23 25 28 30 30 25 25 27
31 32 33 33 32 32 32 31 31 32 33 32 32 33 34 34 34 34 33 33 32 33 35 36 37 38 38 38 36 35 33 32 30 29 30 30 30 27 24 23 23 23 23 22 23 24 25 27 28 29 30 31 32 32 32 31 30 29 28 28 27 26 25 24 24 23 23 24 24 22 20 19 17 17 16 17 19 21 22 22 23 27 30 28 28 29
31 32 33 34 34 34 34 33 33 32 32 31 31 32 34 35 35 35 35 34 33 32 34 35 36 36 37 37 35 34 34 33 31 28 26 27 28 27 24 24 25 24 24 23 23 24 25 26 28 29 30 31 31 32 32 31 31 30 30 29 28 28 27 25 24 23 23 24 24 22 21 20 17 15 15 16 17 17 17 16 18 23 29 30 30 32
31 31 32 33 33 33 32 32 32 31 31 31 31 31 32 33 34 34 35 34 32 31 33 36 37 35 33 33 32 31 32 32 31 29 27 27 27 27 26 27 28 28 28 28 28 28 28 28 29 30 30 31 32 32 31 31 31 31 31 30 30 29 28 26 25 24 23 24 24 22 20 20 19 16 15 17 16 14 15 15 19 22 25 28 32 35
30 30 30 31 31 31 31 31 30 30 29 29 30 30 30 30 30 31 31 29 27 27 28 32 36 36 33 31 30 29 29 30 30 30 30 30 29 28 28 28 30 30 30 30 30 30 30 30 30 31 31 32 33 33 32 32 32 32 32 31 31 31 30 28 26 25 24 24 25 23 20 19 19 17 16 18 19 16 16 18 21 22 23 26 32 35
28 28 28 29 29 29 30 29 29 28 28 27 27 28 28 29 28 27 26 25 24 23 22 24 29 32 32 30 29 29 29 29 29 30 30 30 31 29 28 29 31 31 30 30 30 31 31 32 32 32 32 33 34 34 34 34 34 34 34 33 33 32 31 30 28 27 25 25 25 26 23 20 19 18 17 18 19 18 18 17 18 22 23 26 31 32
27 27 27 27 27 27 28 28 28 26 25 25 26 25 26 27 26 26 26 25 24 23 22 22 24 27 28 29 29 30 30 30 30 30 31 31 31 29 28 29 30 30 30 30 31 32 33 33 33 33 34 34 35 36 36 36 35 35 35 36 36 35 33 32 30 29 27 26 26 27 26 23 20 19 17 17 17 15 14 12 12 15 18 22 26 29
27 27 27 26 26 26 26 26 25 24 23 24 25 25 25 25 25 25 26 26 25 24 23 23 23 24 25 26 28 29 30 31 31 32 33 33 32 31 30 31 31 31 32 33 33 34 35 36 36 36 36 36 37 37 38 37 36 36 36 37 37 37 36 35 33 31 30 28 27 28 28 25 22 20 18 16 14 12 11 9 7 8 10 12 16 21
26 27 27 26 26 26 25 24 24 24 24 25 25 25 25 25 24 24 25 26 26 26 26 25 24 24 24 25 25 26 27 28 30 31 33 33 34 34 34 35 35 34 34 35 35 35 36 37 38 38 38 38 39 39 39 38 37 36 37 37 37 37 37 37 36 34 33 31 29 29 29 27 25 22 20 18 15 14 14 15 14 12 10 10 12 14
25 26 26 26 26 26 25 24 24 25 25 25 25 24 24 23 23 22 23 24 25 26 26 26 26 25 25 25 25 26 27 28 29 30 32 33 34 35 35 36 36 36 36 35 35 34 35 36 38 39 39 39 39 40 40 39 38 37 38 38 38 37 37 38 38 37 36 34 33 32 30 29 26 22 19 18 18 18 18 19 19 16 12 11 12 13
23 25 26 26 26 26 25 24 24 24 25 25 25 24 22 21 21 21 21 22 23 24 25 26 26 27 26 26 27 28 28 29 29 30 31 32 32 33 33 34 34 34 34 33 33 32 32 33 35 36 38 38 37 38 40 40 39 39 38 37 37 37 37 37 38 37 37 36 35 35 34 32 28 23 20 20 21 20 20 20 20 17 13 11 12 14
22 24 25 25 25 25 25 24 24 24 24 25 25 24 23 21 20 20 20 21 22 24 25 25 26 26 27 27 28 28 28 28 28 28 28 29 29 30 30 31 31 32 32 32 31 30 30 30 31 32 34 35 35 36 38 39 40 40 38 37 37 37 37 37 37 37 37 36 35 35 35 34 31 26 22 23 24 23 23 23 22 20 18 16 15 16
21 23 24 24 24 24 24 24 24 24 24 24 24 23 23 22 21 21 21 21 23 24 25 25 25 26 26 26 25 25 24 23 23 23 23 24 25 25 27 28 28 29 30 30 30 29 29 29 29 29 30 31 32 33 34 36 38 39 38 37 37 37 37 37 37 36 36 36 35 34 34 34 33 29 26 28 30 28 25 25 25 24 24 22 21 21
18 20 22 23 23 23 23 24 24 24 24 23 22 21 21 21 22 22 22 21 21 21 21 21 21 22 22 21 20 19 18 18 18 18 19 20 21 22 22 23 24 25 26 27 27 27 27 28 28 28 29 29 29 30 31 33 35 37 36 35 36 37 37 37 36 35 35 35 34 34 34 34 33 32 31 32 33 32 30 29 29 27 26 25 25 25
15 16 18 20 22 22 21 22 23 22 21 20 20 19 19 19 20 20 19 17 16 15 15 15 16 16 16 16 16 16 16 16 17 18 19 20 20 21 22 23 24 25 26 27 27 28 28 28 29 29 30 30 29 29 30 32 34 34 33 33 34 35 35 35 34 33 34 34 34 33 33 33 33 34 33 33 33 33 33 34 33 31 28 27 27 27
Wind_Direction
215 214 215 218 218 217 220 222 221 217 215 217 217 216 216 215 216 219 223 225 223 222 220 217 219 226 233 238 241 239 232 226 224 223 219 216 214 213 215 222 231 240 246 248 249 252 254 255 264 271 269 266 266 268 269 269 270 270 270 271 271 274 275 277 278 279 283 286 290 296 298 295 289 285 286 290 288 282 276 269 263 260 255 253 256 253
213 212 213 216 216 215 217 219 217 212 210 210 211 211 210 211 215 218 221 223 222 221 219 219 222 226 233 238 235 227 222 220 220 220 219 218 214 211 214 221 230 237 242 242 243 251 256 257 264 271 272 273 273 274 276 277 277 277 277 276 275 275 276 277 278 280 283 286 289 294 297 297 293 288 286 288 283 277 275 267 256 250 243 240 241 242
211 211 213 215 214 214 214 214 211 206 205 205 207 208 207 209 215 218 220 223 221 217 219 219 217 222 230 232 226 221 221 222 224 224 226 227 225 223 223 224 228 233 239 242 247 258 262 264 273 280 278 279 281 284 287 286 286 285 283 280 275 271 271 272 274 276 277 279 281 286 290 293 293 289 282 279 276 274 276 268 253 244 242 243 238 238
211 210 212 213 212 211 211 210 207 205 205 206 206 205 204 207 213 217 221 222 217 212 213 212 211 217 224 223 219 221 225 227 229 231 234 237 237 237 235 235 236 240 247 250 253 262 269 274 285 289 284 286 289 290 290 289 288 286 283 279 274 269 267 267 269 272 273 274 277 280 284 290 293 289 281 274 269 267 269 266 252 245 246 247 241 239
214 212 212 211 209 208 208 206 204 205 206 206 206 202 200 205 211 216 221 219 207 201 204 205 208 215 218 218 217 220 226 229 232 235 238 241 242 241 241 242 245 252 258 259 261 266 272 279 285 284 282 287 292 291 290 289 287 285 280 274 270 266 264 265 267 269 272 275 277 280 284 289 292 287 280 274 268 263 262 261 253 248 250 247 240 237
214 213 213 210 206 206 206 204 204 206 207 207 207 202 198 204 211 216 220 214 196 192 199 203 207 215 218 218 219 222 227 229 233 237 240 244 246 245 244 246 252 260 265 267 267 266 268 275 276 276 279 283 287 288 288 286 284 278 270 261 259 260 261 262 264 265 267 270 273 276 280 282 283 282 279 277 272 265 261 259 256 252 247 243 236 234
212 212 210 208 205 204 204 203 204 206 209 209 207 201 198 202 208 213 216 210 194 189 197 202 208 217 221 221 222 227 231 233 236 241 245 249 251 253 255 258 261 266 271 274 270 265 266 271 274 277 279 278 279 283 281 277 275 268 260 259 268 273 272 268 266 266 264 265 268 271 274 273 270 271 274 275 271 264 260 258 255 247 239 235 234 232
209 208 207 205 205 204 203 203 204 206 209 209 204 199 199 201 205 209 212 209 198 191 195 202 210 217 222 224 227 232 236 238 243 245 246 249 252 257 262 266 267 269 272 272 267 265 266 271 276 278 275 273 277 280 273 267 266 263 267 319 317 295 288 284 278 274 269 265 265 266 267 265 260 258 262 266 266 260 254 253 250 242 234 229 228 229
207 206 205 204 204 204 203 204 204 206 207 203 197 197 199 200 203 207 209 208 203 196 197 203 210 215 221 227 230 233 238 243 247 246 245 249 254 258 264 269 270 269 268 268 267 269 271 275 277 275 274 277 278 277 273 270 272 272 281 313 318 304 293 288 286 282 276 269 263 259 261 261 255 249 250 254 257 256 249 245 244 243 236 226 225 228
204 203 202 203 203 203 203 204 203 203 201 195 194 197 199 200 202 206 209 208 206 204 204 206 211 215 220 227 229 231 236 243 245 244 245 250 254 258 264 270 272 272 272 274 275 276 281 284 282 280 281 283 282 280 281 282 282 279 278 286 298 303 292 280 285 284 275 269 260 256 261 263 256 246 243 247 251 252 247 240 239 242 241 234 232 232
203 202 200 201 202 202 202 203 202 199 193 191 195 198 199 201 204 207 210 211 209 209 210 211 213 216 220 226 229 231 233 237 240 243 247 251 257 263 269 272 273 274 275 277 278 279 283 287 289 290 286 286 292 292 288 286 284 282 282 284 291 299 290 279 283 281 272 264 256 256 260 261 258 249 244 250 255 253 247 239 237 240 241 240 241 239
203 202 200 201 202 203 203 204 203 198 192 193 198 200 201 203 206 208 210 213 212 211 212 214 216 219 222 226 232 235 234 234 238 243 247 250 256 265 272 276 276 275 275 276 276 277 281 285 287 287 284 286 292 293 290 289 290 290 291 292 294 295 290 283 281 277 272 262 257 262 262 254 253 253 252 257 259 254 246 238 234 234 235 234 235 238
204 203 201 202 203 205 206 206 206 202 197 197 200 202 202 204 206 208 210 213 214 213 214 217 220 224 228 229 233 238 237 234 236 241 244 247 253 261 265 268 269 270 271 273 276 277 279 281 281 277 278 282 285 286 290 292 294 296 296 296 295 292 286 279 275 273 269 264 266 279 276 256 249 254 258 255 253 251 246 239 234 231 232 232 230 232
203 203 202 203 205 208 209 209 209 207 202 201 204 206 206 206 209 210 211 214 215 215 218 221 224 229 233 232 234 240 241 238 238 241 245 251 258 264 267 264 261 261 265 269 272 273 273 273 274 272 272 278 285 289 291 292 295 298 298 297 294 289 283 274 269 267 268 270 276 286 284 266 253 253 257 255 252 250 246 243 239 235 235 237 237 236
205 204 203 203 206 210 211 212 212 209 205 204 206 209 210 212 213 214 215 217 219 220 222 225 228 232 235 236 238 243 244 244 245 248 252 258 263 267 271 267 260 257 260 264 265 264 266 268 271 272 272 278 288 293 293 293 296 298 299 298 293 286 280 273 268 265 270 279 282 280 277 270 263 260 259 256 252 249 247 246 244 240 239 240 243 245
207 205 203 203 207 209 210 212 213 211 207 204 206 209 212 215 216 216 217 218 220 224 227 229 233 236 238 240 243 245 247 249 253 256 258 261 264 265 266 267 262 257 258 260 261 262 266 269 273 277 279 283 289 291 292 295 297 298 298 297 292 285 277 273 269 265 270 280 282 277 274 271 268 266 263 256 250 250 249 249 249 246 244 243 242 246
206 205 202 202 205 208 208 210 212 212 209 205 205 207 211 216 218 219 219 219 221 226 230 232 236 239 241 242 245 248 250 253 255 258 260 261 264 267 266 267 265 260 259 261 263 267 270 273 276 279 284 287 287 287 289 293 296 297 296 292 289 284 276 273 271 268 273 281 283 280 277 272 267 266 264 256 249 249 248 248 251 249 244 243 242 243
204 203 202 200 201 204 208 210 211 211 209 207 206 205 209 215 219 221 223 223 224 227 232 235 237 240 242 243 246 249 251 254 256 258 260 261 265 268 267 265 265 264 264 265 267 271 272 274 277 282 286 287 286 286 287 290 292 293 292 289 287 284 281 279 277 276 279 286 288 283 275 269 265 262 261 255 248 247 248 247 250 249 243 241 242 243
203 200 200 199 197 200 207 211 212 210 207 206 206 206 210 215 219 222 224 226 226 227 232 237 239 241 244 245 247 249 251 254 257 260 261 263 265 265 264 264 265 266 267 266 269 271 271 274 278 284 288 288 286 285 285 287 288 289 290 290 288 288 287 285 282 281 284 291 293 286 273 263 259 256 256 252 245 244 245 244 246 247 243 242 243 244
204 201 200 198 196 199 206 210 214 214 209 207 206 208 211 215 218 221 224 227 228 229 233 237 240 242 245 247 249 251 253 256 259 261 262 263 263 261 260 261 262 262 262 263 265 266 268 273 278 284 290 291 288 285 285 285 286 287 290 291 290 288 287 287 286 285 289 295 292 280 267 259 255 252 250 246 242 241 243 244 245 246 244 244 246 245
201 202 201 200 198 201 207 209 213 217 216 214 214 214 216 217 220 223 225 229 231 233 236 239 242 244 245 248 249 251 254 257 258 259 260 260 259 259 259 259 258 257 258 260 262 265 269 275 279 284 290 292 290 288 287 286 287 288 289 289 288 287 286 288 289 289 293 299 290 268 259 257 252 249 246 242 240 241 243 246 248 247 244 245 245 244
196 199 201 201 200 202 208 210 212 216 219 220 222 223 224 223 224 225 228 230 231 233 236 240 242 243 244 247 248 250 252 255 257 257 257 257 256 257 258 258 257 256 257 259 263 268 274 278 280 283 284 284 287 289 286 287 289 288 286 285 285 287 287 288 290 290 294 301 293 266 256 252 245 245 245 242 241 241 241 244 246 244 241 242 242 242
193 195 197 200 201 203 207 209 211 213 215 218 220 222 225 227 227 227 228 230 231 232 234 237 239 240 241 244 246 247 248 250 253 254 254 254 254 256 257 257 256 256 257 260 265 271 275 277 278 281 281 279 282 285 284 285 287 286 285 284 283 286 288 288 290 291 293 298 293 272 258 252 247 246 246 243 241 242 243 243 242 240 237 239 239 240
192 193 196 198 200 202 205 207 208 210 211 215 218 218 221 225 228 228 229 231 232 233 233 234 236 236 237 240 243 244 245 247 250 252 252 252 254 256 257 257 257 258 260 263 266 270 272 274 277 280 280 279 279 281 283 285 286 285 285 284 283 286 290 290 289 290 291 292 289 275 263 259 257 253 247 241 238 240 242 240 238 238 238 237 238 240
193 194 196 198 199 201 203 204 206 207 209 214 217 219 219 221 225 227 229 231 231 232 233 233 234 236 238 240 243 244 246 248 251 251 251 252 254 255 254 256 258 261 264 266 267 269 270 273 278 278 276 278 281 284 286 286 285 286 286 285 286 289 292 292 289 287 288 288 286 281 276 275 273 259 244 236 233 236 238 238 238 239 241 241 240 241
195 196 200 201 201 203 203 204 205 207 210 214 217 219 220 221 224 227 229 231 230 231 233 233 233 235 237 239 241 243 245 247 249 250 251 251 251 251 253 256 260 262 264 266 267 268 269 271 274 273 274 278 284 286 286 285 286 287 289 290 291 292 292 292 289 285 284 282 279 280 283 285 280 265 250 243 242 244 244 246 247 248 248 248 245 243
196 198 202 204 204 205 205 205 207 210 213 217 219 221 222 223 226 227 230 231 229 229 232 233 234 236 238 239 241 243 243 244 247 248 248 248 249 253 256 257 258 259 259 261 264 265 265 266 266 268 273 279 283 284 284 284 286 288 291 293 294 292 289 287 287 285 282 277 272 272 276 279 275 270 265 259 256 255 251 250 252 254 255 250 245 242
198 200 204 205 205 207 208 208 210 212 215 219 221 222 224 225 226 228 230 231 229 227 229 232 234 236 239 241 242 242 243 244 246 247 248 248 249 252 255 256 257 257 255 255 260 263 263 261 262 270 278 281 280 280 281 283 285 287 290 293 294 294 290 286 284 283 281 277 272 269 270 272 269 265 264 261 260 258 255 252 251 254 257 249 240 236
199 201 206 207 205 207 210 211 212 212 214 218 222 224 225 226 228 229 231 232 231 229 229 232 235 236 236 237 239 242 245 247 250 253 254 253 253 254 256 256 257 257 255 254 256 260 261 261 266 276 282 283 280 278 278 279 281 283 286 290 292 294 293 290 285 283 281 279 275 272 269 268 267 263 260 259 259 256 255 256 253 253 256 248 237 233
204 205 208 210 208 207 210 213 214 213 214 218 221 223 225 228 230 233 234 234 234 233 231 232 234 236 235 236 240 245 250 254 258 261 262 261 261 260 258 256 255 255 256 255 256 258 260 264 270 276 281 282 279 275 273 274 276 280 283 287 290 292 293 292 289 287 286 285 283 279 274 271 269 266 263 263 263 259 257 258 255 252 251 246 237 233
208 209 212 213 212 212 212 214 216 217 219 221 222 223 224 227 230 232 234 237 237 236 236 237 237 239 240 241 244 249 255 259 262 263 265 265 263 259 256 255 254 254 256 257 257 258 261 265 270 275 279 280 276 270 269 270 274 278 281 285 287 289 290 290 289 289 289 290 290 288 284 282 279 274 269 266 264 262 260 258 254 249 245 243 238 233
210 213 215 216 216 217 218 219 221 222 224 225 226 226 228 230 232 232 232 236 238 238 239 242 243 244 245 245 247 252 256 258 259 261 263 261 255 252 255 256 253 252 253 256 258 260 263 266 270 273 276 276 272 268 268 271 274 277 280 282 285 287 288 288 288 288 288 289 291 291 290 291 290 285 277 270 265 262 261 258 253 247 241 240 238 232
219 219 219 219 219 221 223 224 225 226 227 228 230 231 232 232 233 234 234 236 238 240 242 244 245 245 246 246 250 253 255 254 255 257 259 257 249 248 254 257 253 248 246 250 255 261 265 267 270 272 273 271 270 269 270 272 274 276 279 281 285 287 288 288 288 287 288 289 291 292 293 295 296 292 283 273 265 259 258 255 250 246 241 240 239 233
226 224 223 222 222 224 225 226 228 229 229 231 233 235 237 236 235 236 238 239 240 243 244 244 244 245 246 248 251 254 253 253 254 256 257 256 252 250 251 253 251 247 246 252 259 264 266 267 268 269 270 270 271 272 273 274 275 277 279 281 284 286 287 289 289 289 290 290 292 294 295 297 298 295 287 275 262 257 254 251 248 247 244 241 240 236
229 225 222 223 226 228 228 227 229 230 232 234 235 237 240 241 240 239 240 241 243 245 247 247 246 246 247 250 252 253 254 254 255 256 258 258 258 257 255 252 251 250 251 255 259 262 264 266 266 267 268 269 271 274 276 276 277 279 280 281 282 283 285 288 289 291 292 291 292 295 298 300 301 299 292 276 261 257 254 249 247 246 242 239 238 238
232 229 225 225 228 232 232 231 231 233 234 234 236 237 239 241 241 242 242 243 244 246 247 248 248 247 249 251 253 254 255 255 254 256 259 260 260 261 260 257 255 254 253 252 254 257 260 262 263 264 266 268 271 274 277 278 279 280 281 281 281 281 284 285 287 290 292 292 294 296 298 301 303 303 298 281 266 257 254 256 253 242 235 234 234 235
235 235 233 233 233 235 237 238 239 239 238 236 236 238 238 239 240 242 243 244 245 246 246 247 248 249 251 253 254 255 254 252 252 256 260 260 260 259 258 258 257 255 254 253 253 255 258 260 261 263 264 267 270 274 276 278 279 280 281 280 280 279 281 282 283 287 290 292 294 296 297 300 303 306 302 288 275 264 258 264 259 238 226 225 227 228
238 238 238 239 239 239 240 242 242 243 243 242 242 242 241 240 241 242 243 244 245 246 247 247 247 249 250 252 253 253 252 250 251 257 260 258 255 253 252 252 252 251 252 253 254 256 258 259 260 261 263 265 268 272 275 276 278 279 279 279 279 279 279 279 281 284 287 289 293 295 297 298 302 307 300 286 278 267 255 260 257 234 220 221 224 223
242 242 242 243 243 244 245 245 244 244 245 245 245 245 244 243 244 245 246 248 249 251 252 250 248 249 250 251 252 252 251 250 251 254 254 252 249 247 246 246 246 248 251 254 256 258 260 259 260 260 262 264 266 268 271 273 275 277 277 278 279 279 279 279 279 281 283 286 290 294 297 297 300 303 295 283 273 250 235 249 255 231 217 216 219 218
244 244 245 245 246 247 247 247 246 245 245 244 244 244 245 245 247 248 250 252 254 257 255 249 245 246 248 249 251 251 250 249 248 248 249 249 248 247 245 245 248 251 255 257 258 259 260 260 260 260 261 263 265 266 268 270 272 274 275 277 278 279 278 278 278 279 281 283 286 291 295 296 297 297 290 286 277 245 230 254 264 244 224 214 212 214
244 244 244 245 246 246 247 247 246 245 245 244 244 244 243 244 246 248 249 251 253 256 253 245 240 242 246 248 249 249 247 247 246 247 248 248 248 248 247 248 251 253 255 256 257 257 258 259 260 260 261 263 265 267 268 269 271 272 274 276 277 278 278 277 277 278 279 281 284 288 292 293 294 295 291 291 292 282 274 273 262 247 232 217 210 211
243 243 243 242 243 244 245 246 246 244 243 243 243 242 242 243 244 245 246 245 246 248 248 242 237 238 242 244 245 245 244 244 245 246 246 247 248 248 248 249 251 252 252 253 254 255 257 258 259 260 261 262 263 265 267 269 271 273 275 277 277 277 277 277 277 276 276 278 280 285 289 288 287 289 289 291 294 293 290 279 253 237 229 219 213 215
241 241 241 240 240 241 242 244 244 242 241 240 239 239 240 241 241 242 243 244 244 244 244 241 237 237 238 240 241 242 243 243 243 244 245 246 248 248 247 247 249 252 253 254 255 256 257 258 259 260 261 262 263 264 265 267 269 272 274 276 277 277 277 276 276 275 274 276 277 281 286 287 284 283 285 286 287 285 286 280 254 236 231 225 223 225
239 240 240 240 240 239 239 241 241 238 236 236 236 235 236 238 239 239 241 243 243 242 241 240 240 239 239 240 241 242 243 243 243 245 246 248 249 249 250 251 254 256 257 258 258 258 259 259 260 260 260 261 262 263 264 266 267 269 271 273 274 276 276 276 275 273 273 274 275 279 283 286 285 283 281 278 275 270 269 271 263 252 248 243 241 240
239 240 240 239 239 238 237 236 235 233 232 232 233 233 233 235 237 237 238 240 240 240 239 239 240 240 240 241 242 243 244 245 245 246 247 248 250 251 253 255 257 259 260 261 261 261 261 262 262 261 260 260 261 262 264 265 266 267 268 269 271 273 275 275 275 274 273 272 273 276 280 283 283 282 279 275 268 260 262 270 275 272 264 260 258 255
236 237 237 237 236 236 235 234 233 231 230 230 231 232 232 234 235 236 237 238 239 239 239 239 240 241 241 242 243 244 245 246 247 247 248 249 250 252 253 255 257 259 261 263 265 265 264 264 264 263 263 262 263 263 264 264 264 265 266 266 267 269 271 272 273 273 272 272 272 273 275 278 279 277 274 272 268 263 264 270 270 262 257 261 259 248
234 234 234 233 233 233 232 231 231 231 231 231 231 232 231 232 233 233 235 237 238 239 240 240 240 240 241 242 243 244 245 246 248 250 251 252 254 255 257 258 260 261 263 265 267 267 267 266 265 265 265 265 265 265 265 264 263 263 264 265 267 267 268 269 270 271 272 272 272 272 273 274 274 271 267 267 265 261 259 260 259 252 251 261 260 243
236 234 233 231 230 229 228 227 227 227 229 230 231 231 231 231 231 232 234 235 236 236 237 237 237 238 239 240 242 245 247 249 252 254 256 258 260 262 263 264 264 265 266 267 268 268 268 267 265 264 265 266 266 265 265 264 263 261 261 264 266 267 267 267 269 271 272 272 272 271 271 271 270 267 261 258 256 254 251 251 252 254 256 260 259 249
238 235 232 229 226 225 224 223 224 225 226 228 230 231 231 231 232 233 235 236 236 235 234 234 235 236 238 240 243 247 249 252 254 257 258 261 262 264 265 266 267 267 268 269 270 271 270 269 268 266 266 266 267 266 265 264 263 262 261 260 262 263 263 264 265 267 270 271 270 270 269 267 265 262 253 248 249 250 248 246 249 255 262 264 258 250
235 230 226 222 220 220 221 220 221 222 223 225 227 227 228 228 229 230 231 233 234 234 233 232 233 233 235 238 240 241 244 248 252 256 258 260 262 263 264 265 266 267 268 268 269 270 270 271 271 271 271 270 270 269 268 267 266 265 263 261 261 262 263 264 264 265 265 266 267 267 267 264 261 258 253 252 254 254 250 248 249 253 258 259 254 246
228 221 218 215 211 212 215 216 216 217 217 217 216 216 218 220 221 224 227 227 227 229 230 229 228 227 227 229 231 235 241 248 254 257 259 261 263 264 264 265 266 266 266 266 266 267 267 267 268 269 269 270 269 269 269 269 269 269 267 264 262 261 262 264 265 264 263 263 264 264 264 263 260 257 255 255 256 256 253 252 252 252 250 249 250 247
Height
5722 5726 5730 5735 5738 5740 5742 5745 5748 5751 5753 5755 5758 5760 5762 5765 5766 5766 5767 5769 5772 5776 5780 5783 5785 5785 5786 5788 5790 5791 5791 5791 5792 5793 5794 5796 5797 5798 5799 5800 5800 5800 5800 5802 5802 5800 5800 5802 5802 5803 5804 5805 5805 5805 5805 5804 5804 5803 5804 5804 5804 5804 5804 5804 5804 5805 5805 5805 5805 5805 5805 5805 5804 5804 5803 5802 5801 5799 5797 5796 5798 5800 5800 5801 5801 5801
5720 5724 5728 5731 5734 5736 5739 5742 5745 5748 5750 5753 5755 5757 5759 5762 5763 5764 5765 5767 5770 5775 5778 5780 5781 5782 5783 5786 5787 5787 5788 5788 5789 5790 5791 5792 5794 5795 5796 5797 5798 5798 5798 5799 5799 5798 5798 5799 5801 5802 5802 5803 5802 5802 5802 5802 5802 5801 5802 5802 5802 5802 5801 5801 5801 5801 5802 5802 5802 5803 5804 5804 5804 5803 5801 5800 5798 5797 5796 5795 5797 5798 5798 5800 5800 5799
5717 5721 5725 5727 5730 5732 5735 5738 5742 5745 5747 5749 5752 5754 5757 5759 5760 5762 5763 5765 5769 5773 5775 5777 5778 5780 5781 5783 5784 5785 5785 5786 5787 5788 5789 5790 5792 5794 5795 5795 5796 5796 5796 5797 5796 5796 5796 5797 5799 5801 5801 5800 5800 5800 5800 5799 5799 5799 5799 5799 5799 5798 5798 5798 5797 5798 5798 5799 5799 5799 5801 5802 5803 5802 5800 5798 5797 5796 5795 5794 5796 5797 5797 5798 5798 5797
5714 5718 5720 5723 5726 5729 5732 5736 5739 5742 5744 5746 5749 5751 5754 5756 5758 5760 5760 5763 5768 5771 5773 5775 5776 5777 5778 5780 5781 5782 5783 5784 5785 5786 5787 5789 5791 5792 5793 5793 5794 5794 5795 5795 5795 5795 5795 5795 5798 5799 5798 5797 5797 5797 5797 5796 5796 5796 5795 5795 5794 5794 5794 5794 5794 5795 5795 5796 5796 5796 5797 5798 5799 5800 5799 5797 5796 5795 5794 5793 5795 5797 5797 5796 5795 5796
5711 5714 5717 5720 5723 5727 5730 5733 5736 5739 5741 5744 5746 5749 5752 5755 5756 5757 5758 5762 5767 5769 5771 5772 5774 5775 5775 5777 5779 5780 5781 5783 5784 5785 5785 5787 5788 5789 5790 5791 5792 5792 5793 5793 5794 5794 5794 5795 5796 5796 5795 5795 5794 5795 5794 5794 5793 5792 5790 5789 5789 5789 5789 5790 5791 5792 5792 5793 5794 5794 5795 5795 5796 5797 5797 5796 5795 5794 5792 5791 5792 5795 5795 5793 5793 5794
5707 5711 5715 5718 5721 5724 5727 5731 5734 5737 5739 5741 5744 5747 5750 5752 5754 5754 5756 5761 5765 5767 5769 5770 5771 5771 5773 5775 5777 5778 5780 5781 5782 5783 5784 5785 5786 5787 5788 5789 5790 5790 5791 5792 5792 5792 5793 5793 5793 5794 5794 5793 5793 5792 5791 5789 5787 5785 5782 5781 5782 5784 5785 5786 5786 5787 5788 5789 5790 5791 5792 5792 5792 5793 5793 5793 5793 5792 5791 5791 5791 5792 5793 5791 5791 5793
5704 5708 5712 5715 5718 5721 5724 5728 5731 5734 5736 5739 5743 5745 5747 5749 5751 5753 5755 5759 5763 5765 5766 5767 5768 5769 5771 5773 5774 5776 5778 5779 5780 5781 5782 5783 5784 5785 5786 5787 5788 5788 5789 5790 5790 5790 5791 5791 5792 5792 5791 5790 5790 5789 5788 5786 5784 5782 5779 5778 5781 5783 5783 5783 5784 5784 5785 5785 5786 5786 5787 5788 5789 5789 5789 5790 5790 5790 5790 5790 5790 5790 5790 5790 5790 5792
5701 5705 5708 5712 5715 5718 5722 5726 5729 5732 5735 5738 5742 5744 5745 5747 5749 5751 5753 5756 5760 5763 5764 5765 5766 5767 5769 5771 5773 5774 5775 5776 5778 5779 5781 5781 5782 5783 5784 5784 5785 5786 5786 5787 5788 5788 5789 5790 5790 5789 5789 5788 5787 5786 5787 5785 5783 5783 5782 5781 5783 5783 5783 5783 5783 5783 5783 5782 5782 5782 5783 5783 5784 5785 5785 5786 5787 5787 5787 5787 5788 5788 5787 5788 5789 5790
5700 5703 5706 5710 5713 5717 5721 5725 5728 5730 5733 5737 5740 5741 5743 5745 5747 5749 5751 5753 5757 5760 5762 5763 5764 5766 5767 5769 5771 5772 5773 5774 5776 5777 5778 5779 5780 5781 5781 5782 5783 5783 5784 5785 5785 5786 5787 5788 5787 5787 5787 5787 5786 5785 5784 5783 5783 5783 5783 5782 5782 5782 5782 5782 5782 5781 5781 5780 5779 5779 5778 5778 5779 5779 5781 5782 5783 5783 5784 5784 5785 5785 5785 5786 5787 5788
5697 5700 5704 5707 5711 5716 5719 5722 5725 5728 5732 5735 5737 5738 5740 5743 5745 5747 5749 5751 5754 5757 5759 5761 5763 5764 5766 5768 5770 5771 5772 5773 5774 5775 5776 5777 5778 5779 5780 5780 5781 5782 5782 5783 5783 5783 5784 5784 5784 5785 5785 5784 5783 5783 5782 5782 5783 5783 5782 5780 5780 5780 5780 5779 5779 5779 5779 5778 5776 5775 5774 5773 5773 5774 5775 5777 5779 5780 5781 5781 5782 5783 5784 5785 5786 5786
5694 5697 5701 5705 5709 5712 5715 5718 5721 5725 5729 5732 5734 5735 5738 5741 5743 5745 5746 5748 5751 5754 5757 5758 5760 5763 5765 5766 5767 5769 5771 5772 5772 5773 5774 5775 5776 5777 5778 5779 5779 5780 5780 5780 5781 5780 5780 5781 5781 5782 5782 5781 5781 5781 5781 5781 5780 5779 5779 5778 5777 5778 5777 5776 5776 5776 5776 5774 5772 5771 5770 5769 5768 5769 5771 5774 5776 5778 5778 5779 5780 5781 5782 5784 5784 5783
5691 5694 5699 5702 5706 5709 5711 5715 5718 5721 5724 5727 5729 5732 5735 5738 5740 5742 5743 5745 5748 5751 5754 5756 5758 5761 5762 5763 5764 5767 5769 5770 5771 5772 5772 5773 5774 5775 5776 5777 5777 5777 5778 5778 5778 5778 5778 5778 5779 5779 5779 5778 5778 5777 5777 5777 5776 5776 5776 5775 5774 5775 5774 5774 5773 5773 5773 5771 5769 5768 5768 5767 5766 5768 5771 5773 5774 5775 5776 5777 5777 5778 5779 5780 5780 5780
5688 5693 5697 5700 5703 5706 5709 5712 5715 5717 5721 5723 5725 5728 5731 5734 5736 5738 5740 5742 5745 5749 5751 5753 5756 5758 5758 5760 5762 5764 5766 5768 5769 5770 5771 5772 5773 5774 5774 5774 5774 5774 5775 5776 5776 5776 5776 5776 5776 5777 5776 5776 5776 5776 5774 5774 5773 5773 5773 5772 5772 5771 5771 5771 5770 5769 5768 5767 5766 5767 5767 5767 5767 5768 5769 5769 5770 5773 5775 5774 5774 5775 5776 5777 5777 5777
5686 5691 5694 5698 5701 5704 5707 5710 5712 5715 5719 5721 5723 5725 5728 5731 5733 5735 5737 5740 5743 5747 5749 5751 5754 5754 5754 5757 5759 5760 5763 5765 5767 5768 5770 5771 5771 5772 5772 5771 5771 5772 5773 5773 5774 5774 5774 5774 5774 5775 5774 5773 5773 5773 5772 5771 5771 5770 5770 5769 5768 5768 5768 5767 5767 5766 5764 5764 5764 5765 5765 5764 5765 5767 5766 5766 5769 5771 5772 5772 5772 5773 5774 5775 5776 5775
5685 5689 5693 5697 5699 5702 5706 5709 5711 5714 5717 5720 5723 5725 5728 5730 5732 5733 5736 5739 5743 5745 5747 5749 5750 5749 5751 5754 5756 5758 5760 5762 5764 5766 5767 5768 5768 5769 5769 5769 5769 5769 5770 5771 5772 5772 5772 5772 5772 5772 5772 5771 5770 5769 5768 5768 5767 5767 5766 5766 5765 5764 5764 5763 5763 5762 5761 5761 5762 5762 5762 5761 5762 5763 5763 5764 5766 5767 5768 5769 5770 5770 5772 5773 5774 5774
5685 5688 5692 5695 5698 5701 5705 5707 5710 5713 5715 5719 5722 5725 5727 5729 5730 5733 5735 5738 5741 5743 5744 5745 5746 5746 5748 5751 5754 5755 5757 5759 5761 5762 5764 5765 5765 5766 5766 5766 5767 5767 5768 5768 5769 5769 5770 5770 5769 5769 5769 5769 5768 5766 5765 5764 5764 5763 5763 5762 5761 5760 5760 5759 5759 5757 5756 5757 5757 5758 5759 5759 5759 5759 5759 5761 5762 5762 5764 5766 5767 5767 5769 5770 5771 5771
5683 5687 5691 5694 5697 5700 5702 5705 5708 5711 5714 5717 5720 5723 5726 5727 5729 5731 5733 5736 5738 5739 5740 5742 5743 5744 5746 5749 5751 5753 5754 5756 5758 5760 5760 5761 5762 5762 5763 5764 5764 5765 5765 5766 5766 5767 5767 5767 5766 5766 5766 5765 5765 5764 5763 5761 5760 5760 5759 5758 5757 5757 5756 5755 5755 5754 5753 5753 5753 5753 5755 5756 5756 5755 5755 5756 5758 5759 5761 5763 5764 5764 5765 5767 5768 5768
5683 5686 5689 5692 5696 5698 5700 5703 5705 5709 5713 5716 5719 5721 5724 5725 5726 5728 5731 5733 5735 5736 5737 5738 5740 5742 5744 5747 5748 5750 5752 5754 5756 5757 5757 5758 5759 5759 5760 5761 5762 5762 5763 5763 5764 5764 5764 5764 5763 5763 5762 5762 5762 5761 5760 5759 5758 5757 5756 5755 5754 5753 5753 5752 5752 5751 5751 5750 5749 5749 5751 5752 5751 5751 5752 5753 5754 5756 5758 5759 5760 5760 5761 5763 5765 5766
5682 5685 5687 5690 5693 5696 5698 5701 5703 5706 5710 5714 5717 5720 5721 5722 5724 5726 5728 5729 5732 5734 5734 5735 5737 5739 5741 5744 5746 5748 5750 5751 5753 5753 5754 5755 5756 5757 5758 5759 5760 5760 5760 5761 5761 5761 5761 5761 5761 5760 5759 5758 5758 5757 5756 5755 5755 5754 5753 5752 5751 5750 5749 5749 5748 5748 5748 5748 5745 5744 5745 5747 5746 5747 5748 5749 5750 5752 5754 5755 5755 5757 5758 5760 5761 5763
5680 5683 5685 5688 5691 5694 5696 5699 5701 5705 5708 5711 5713 5716 5717 5719 5721 5723 5725 5727 5729 5731 5732 5733 5734 5736 5739 5742 5744 5745 5747 5749 5750 5751 5752 5753 5754 5756 5756 5757 5757 5758 5758 5758 5759 5759 5759 5759 5758 5757 5756 5755 5754 5754 5753 5752 5751 5751 5750 5750 5749 5748 5747 5746 5745 5744 5744 5744 5742 5740 5740 5742 5742 5742 5743 5744 5746 5749 5751 5751 5752 5754 5756 5757 5759 5760
5678 5681 5683 5686 5689 5692 5694 5697 5700 5703 5706 5709 5710 5712 5714 5716 5719 5721 5723 5725 5726 5728 5730 5730 5732 5735 5737 5739 5741 5743 5744 5746 5747 5749 5750 5751 5752 5754 5754 5754 5755 5755 5755 5756 5756 5756 5756 5756 5755 5754 5753 5752 5751 5751 5750 5749 5748 5748 5748 5747 5747 5746 5745 5744 5743 5742 5741 5739 5737 5736 5736 5737 5738 5737 5738 5740 5742 5745 5748 5749 5750 5752 5753 5754 5756 5757
5674 5678 5681 5684 5687 5690 5692 5695 5699 5701 5704 5707 5709 5711 5713 5715 5717 5719 5721 5722 5723 5725 5727 5728 5730 5733 5735 5736 5739 5741 5742 5743 5745 5746 5748 5749 5750 5751 5751 5752 5752 5752 5752 5752 5753 5753 5753 5753 5752 5751 5750 5750 5749 5748 5748 5747 5746 5746 5746 5745 5744 5743 5743 5742 5741 5740 5739 5736 5733 5732 5732 5733 5734 5734 5735 5737 5739 5741 5743 5745 5746 5747 5749 5751 5752 5753
5672 5675 5678 5681 5684 5687 5690 5693 5696 5699 5701 5704 5706 5708 5710 5712 5714 5716 5718 5719 5721 5722 5724 5725 5727 5729 5731 5734 5736 5738 5739 5740 5742 5743 5745 5746 5747 5748 5749 5749 5749 5749 5749 5750 5750 5750 5750 5750 5749 5749 5748 5747 5747 5746 5745 5745 5744 5744 5743 5743 5742 5741 5740 5740 5739 5738 5737 5734 5731 5729 5729 5730 5731 5732 5734 5735 5736 5737 5739 5741 5742 5743 5745 5747 5748 5749
5670 5673 5675 5678 5682 5685 5687 5691 5694 5696 5699 5701 5703 5705 5707 5709 5711 5713 5715 5717 5718 5720 5721 5723 5724 5726 5729 5732 5734 5735 5736 5737 5739 5740 5742 5744 5745 5746 5746 5746 5746 5746 5747 5747 5747 5747 5748 5747 5747 5746 5746 5745 5745 5744 5744 5743 5742 5741 5741 5741 5740 5739 5738 5737 5736 5735 5735 5733 5730 5728 5727 5727 5729 5731 5732 5733 5733 5735 5736 5737 5739 5740 5741 5743 5744 5745
5669 5671 5673 5676 5679 5681 5684 5688 5690 5693 5695 5698 5700 5702 5705 5707 5708 5710 5712 5714 5716 5717 5719 5720 5722 5724 5728 5730 5732 5733 5734 5735 5736 5738 5739 5741 5742 5743 5743 5743 5743 5744 5744 5744 5745 5745 5745 5745 5744 5744 5744 5743 5743 5742 5741 5741 5740 5739 5739 5739 5738 5737 5736 5735 5734 5733 5732 5731 5729 5727 5726 5727 5728 5729 5730 5731 5730 5732 5733 5734 5736 5737 5739 5739 5740 5741
5669 5671 5672 5674 5677 5679 5682 5685 5688 5691 5693 5695 5698 5700 5703 5705 5706 5708 5710 5711 5713 5715 5717 5718 5720 5722 5725 5728 5729 5731 5732 5733 5734 5735 5737 5738 5739 5739 5740 5740 5740 5741 5741 5742 5742 5742 5742 5742 5742 5742 5742 5741 5740 5740 5739 5738 5737 5737 5737 5736 5736 5735 5734 5733 5732 5731 5730 5729 5728 5727 5726 5726 5727 5728 5729 5729 5729 5729 5730 5732 5734 5735 5736 5737 5737 5738
5668 5670 5672 5674 5677 5679 5682 5684 5687 5689 5692 5694 5696 5699 5701 5703 5704 5706 5707 5709 5711 5713 5715 5717 5719 5721 5723 5725 5727 5728 5729 5730 5731 5733 5734 5735 5736 5736 5736 5737 5737 5738 5739 5739 5739 5739 5740 5740 5740 5740 5739 5739 5738 5738 5737 5736 5735 5734 5734 5734 5733 5732 5732 5731 5730 5729 5728 5728 5727 5726 5725 5726 5726 5727 5727 5727 5727 5728 5729 5730 5731 5732 5733 5734 5734 5735
5667 5669 5671 5673 5676 5678 5681 5683 5686 5688 5690 5692 5695 5697 5699 5700 5702 5704 5705 5707 5709 5711 5713 5715 5717 5719 5721 5723 5725 5726 5727 5728 5729 5731 5731 5732 5733 5733 5734 5734 5734 5735 5736 5736 5737 5737 5737 5737 5737 5737 5737 5737 5736 5736 5735 5734 5733 5732 5731 5731 5730 5729 5729 5728 5728 5727 5726 5726 5725 5725 5725 5724 5725 5725 5725 5724 5724 5725 5726 5727 5728 5729 5730 5730 5731 5732
5666 5668 5670 5672 5675 5677 5680 5682 5684 5686 5688 5690 5692 5694 5697 5698 5700 5702 5704 5705 5707 5709 5711 5713 5715 5717 5719 5721 5722 5723 5724 5726 5727 5728 5729 5729 5730 5731 5731 5731 5732 5732 5733 5734 5734 5734 5735 5735 5735 5735 5735 5734 5734 5734 5733 5732 5731 5730 5729 5728 5727 5727 5726 5726 5725 5724 5724 5723 5723 5723 5723 5723 5723 5723 5722 5722 5722 5723 5723 5724 5725 5726 5727 5728 5729 5729
5666 5668 5669 5671 5673 5676 5678 5680 5682 5684 5686 5688 5690 5692 5694 5697 5698 5700 5702 5703 5705 5707 5709 5710 5712 5714 5716 5718 5720 5721 5722 5723 5724 5725 5726 5726 5727 5728 5728 5728 5729 5730 5730 5731 5731 5732 5732 5732 5732 5732 5732 5732 5732 5732 5731 5730 5729 5728 5727 5726 5725 5725 5724 5723 5723 5722 5721 5721 5721 5721 5721 5721 5720 5720 5719 5719 5720 5720 5720 5721 5722 5723 5724 5725 5726 5728
5665 5667 5668 5670 5672 5674 5676 5678 5680 5682 5684 5686 5688 5690 5692 5694 5696 5698 5700 5701 5703 5705 5706 5708 5710 5712 5714 5716 5717 5718 5719 5720 5721 5722 5723 5724 5725 5725 5725 5726 5726 5727 5728 5728 5729 5729 5729 5729 5730 5730 5730 5730 5730 5730 5729 5728 5727 5726 5725 5724 5723 5723 5722 5721 5721 5720 5719 5718 5718 5718 5718 5717 5717 5717 5717 5717 5716 5716 5717 5718 5719 5720 5721 5722 5723 5725
5663 5665 5667 5669 5671 5673 5675 5676 5678 5680 5682 5684 5686 5688 5689 5692 5694 5696 5698 5699 5701 5703 5704 5706 5708 5710 5711 5713 5714 5716 5717 5717 5718 5719 5720 5722 5722 5723 5722 5723 5724 5725 5725 5726 5726 5726 5726 5726 5727 5727 5727 5727 5727 5727 5727 5726 5725 5724 5723 5723 5722 5721 5720 5720 5719 5718 5717 5716 5716 5716 5715 5714 5714 5714 5714 5714 5713 5713 5714 5715 5716 5717 5718 5719 5720 5722
5661 5663 5665 5667 5669 5671 5672 5674 5676 5678 5680 5682 5683 5685 5687 5689 5691 5693 5695 5697 5698 5700 5702 5704 5705 5707 5708 5710 5711 5713 5714 5715 5716 5717 5718 5719 5720 5720 5720 5720 5721 5722 5723 5723 5723 5724 5724 5724 5724 5724 5724 5724 5724 5724 5724 5724 5723 5722 5721 5721 5720 5719 5718 5718 5717 5716 5715 5714 5714 5714 5713 5712 5711 5711 5711 5710 5711 5711 5711 5712 5713 5713 5714 5716 5717 5719
5658 5660 5662 5664 5666 5668 5669 5671 5673 5675 5677 5679 5681 5683 5685 5687 5689 5691 5693 5694 5696 5697 5699 5701 5702 5704 5705 5707 5709 5710 5711 5712 5713 5714 5715 5716 5717 5717 5718 5718 5719 5719 5720 5720 5720 5721 5721 5721 5721 5721 5721 5721 5721 5721 5721 5721 5720 5720 5719 5719 5718 5717 5716 5716 5715 5714 5713 5712 5712 5711 5711 5710 5708 5707 5707 5707 5708 5708 5709 5710 5710 5710 5711 5712 5714 5715
5656 5658 5659 5661 5663 5665 5667 5669 5670 5672 5674 5676 5678 5680 5682 5684 5687 5688 5690 5691 5693 5694 5696 5698 5700 5701 5702 5704 5706 5707 5708 5709 5710 5711 5712 5713 5713 5714 5715 5716 5716 5716 5717 5717 5717 5717 5718 5718 5718 5718 5718 5718 5718 5718 5718 5718 5718 5717 5717 5716 5716 5715 5714 5713 5713 5712 5711 5709 5709 5709 5708 5707 5706 5705 5705 5705 5705 5706 5707 5707 5708 5708 5708 5709 5711 5712
5653 5655 5657 5659 5660 5662 5663 5665 5667 5669 5671 5674 5676 5678 5680 5682 5683 5685 5687 5689 5690 5691 5693 5695 5696 5698 5699 5701 5702 5703 5705 5706 5707 5708 5708 5709 5710 5710 5711 5712 5712 5713 5713 5713 5714 5714 5714 5714 5714 5714 5715 5715 5715 5715 5715 5715 5715 5715 5714 5714 5713 5713 5712 5711 5710 5710 5709 5707 5706 5707 5706 5705 5704 5704 5703 5702 5703 5704 5704 5704 5704 5704 5704 5706 5707 5708
5651 5653 5654 5656 5658 5659 5661 5663 5664 5666 5668 5670 5673 5675 5677 5679 5681 5682 5684 5685 5687 5688 5689 5691 5693 5694 5696 5697 5699 5700 5701 5702 5703 5704 5705 5705 5706 5707 5708 5708 5709 5709 5709 5710 5710 5711 5711 5711 5711 5711 5711 5712 5712 5712 5712 5712 5712 5712 5711 5711 5710 5710 5709 5709 5708 5708 5707 5705 5704 5704 5704 5704 5703 5702 5701 5701 5701 5702 5701 5701 5700 5700 5700 5702 5704 5705
5647 5649 5651 5653 5654 5656 5658 5660 5661 5663 5665 5668 5670 5672 5673 5675 5677 5679 5680 5682 5683 5684 5686 5687 5689 5690 5691 5693 5694 5696 5697 5698 5700 5701 5701 5701 5702 5703 5704 5705 5705 5705 5706 5706 5707 5707 5707 5708 5708 5708 5708 5709 5709 5709 5709 5709 5709 5708 5708 5708 5707 5707 5706 5706 5706 5705 5704 5703 5702 5702 5702 5702 5701 5700 5699 5699 5699 5698 5698 5697 5697 5697 5698 5700 5701 5703
5644 5645 5647 5649 5650 5652 5654 5656 5658 5660 5662 5665 5666 5667 5669 5671 5673 5675 5676 5678 5680 5682 5682 5683 5685 5686 5687 5689 5690 5692 5693 5694 5696 5697 5697 5697 5698 5699 5701 5701 5702 5702 5702 5703 5703 5704 5704 5705 5705 5705 5705 5705 5705 5705 5705 5705 5705 5705 5705 5704 5704 5703 5703 5703 5703 5703 5702 5701 5700 5700 5699 5699 5699 5699 5697 5696 5695 5695 5694 5695 5695 5695 5696 5697 5698 5700
5640 5642 5643 5645 5647 5649 5651 5653 5655 5657 5658 5660 5662 5663 5665 5667 5669 5671 5673 5674 5676 5678 5678 5678 5680 5682 5683 5685 5686 5688 5689 5690 5692 5693 5694 5694 5695 5696 5697 5698 5698 5699 5699 5699 5700 5700 5701 5701 5701 5702 5702 5701 5701 5701 5701 5701 5701 5701 5701 5701 5701 5700 5700 5700 5700 5700 5699 5698 5698 5698 5698 5697 5697 5697 5696 5695 5693 5692 5693 5694 5694 5694 5694 5694 5695 5696
5637 5639 5640 5642 5644 5645 5647 5649 5651 5653 5655 5656 5658 5660 5662 5663 5666 5668 5669 5671 5672 5673 5673 5674 5675 5678 5680 5681 5683 5684 5685 5686 5688 5689 5690 5691 5691 5692 5694 5694 5694 5695 5695 5695 5696 5696 5697 5697 5698 5698 5698 5698 5697 5697 5697 5697 5697 5697 5697 5698 5697 5697 5696 5696 5697 5697 5697 5696 5695 5695 5696 5695 5694 5694 5694 5693 5692 5691 5691 5691 5691 5691 5692 5693 5693 5693
5634 5635 5637 5639 5640 5642 5644 5645 5647 5649 5651 5653 5655 5656 5658 5660 5663 5665 5666 5667 5668 5669 5670 5671 5672 5674 5677 5678 5679 5680 5681 5683 5684 5685 5686 5687 5687 5689 5690 5690 5690 5690 5691 5692 5692 5692 5692 5693 5693 5694 5694 5694 5694 5693 5694 5694 5693 5693 5693 5694 5694 5693 5693 5693 5693 5693 5694 5694 5693 5692 5693 5693 5693 5692 5692 5691 5690 5689 5689 5689 5689 5689 5690 5691 5692 5692
5630 5632 5634 5635 5637 5639 5640 5642 5644 5647 5648 5650 5651 5653 5655 5657 5660 5661 5662 5663 5665 5666 5667 5669 5670 5672 5673 5675 5676 5677 5678 5679 5680 5681 5682 5683 5683 5685 5686 5686 5686 5686 5687 5688 5688 5688 5688 5688 5689 5690 5690 5690 5690 5690 5690 5690 5690 5690 5690 5690 5690 5690 5690 5690 5690 5690 5690 5691 5690 5690 5689 5690 5691 5690 5690 5690 5689 5688 5688 5687 5687 5687 5688 5689 5691 5691
5627 5629 5630 5632 5634 5636 5638 5639 5642 5644 5645 5646 5648 5650 5652 5654 5656 5658 5659 5660 5662 5663 5665 5666 5667 5669 5670 5671 5672 5673 5674 5676 5677 5678 5678 5679 5680 5681 5682 5682 5682 5683 5683 5683 5684 5684 5684 5684 5684 5685 5685 5685 5685 5685 5686 5686 5686 5687 5686 5686 5686 5686 5686 5686 5686 5686 5687 5687 5688 5687 5686 5686 5687 5688 5688 5688 5687 5686 5686 5685 5685 5686 5686 5687 5688 5689
5624 5626 5628 5629 5631 5633 5635 5636 5638 5640 5641 5643 5645 5647 5649 5651 5653 5654 5656 5657 5659 5660 5661 5663 5664 5665 5667 5668 5669 5670 5671 5672 5673 5674 5675 5675 5676 5677 5677 5678 5678 5678 5678 5679 5679 5679 5679 5679 5679 5680 5680 5680 5681 5681 5681 5682 5682 5683 5682 5682 5682 5682 5682 5683 5683 5683 5683 5683 5684 5684 5683 5683 5683 5684 5684 5685 5684 5683 5683 5683 5683 5684 5685 5685 5686 5686
5621 5623 5624 5626 5627 5629 5631 5633 5635 5637 5638 5640 5642 5644 5646 5648 5650 5651 5653 5654 5656 5657 5658 5660 5661 5662 5664 5665 5666 5667 5667 5668 5669 5670 5671 5671 5672 5672 5672 5673 5673 5673 5673 5673 5674 5674 5674 5674 5674 5674 5674 5675 5676 5676 5676 5677 5678 5678 5678 5678 5678 5679 5679 5679 5679 5678 5679 5679 5680 5680 5681 5680 5680 5680 5681 5681 5681 5681 5681 5681 5681 5682 5682 5683 5683 5684
5618 5619 5620 5622 5624 5626 5628 5630 5632 5634 5636 5638 5640 5642 5644 5645 5647 5649 5650 5652 5653 5654 5655 5657 5658 5659 5660 5661 5662 5663 5664 5664 5665 5666 5667 5667 5667 5668 5668 5668 5669 5669 5669 5669 5669 5669 5669 5669 5669 5669 5669 5670 5670 5671 5671 5672 5673 5673 5673 5674 5674 5675 5675 5674 5674 5674 5675 5675 5676 5676 5677 5677 5677 5678 5678 5678 5678 5678 5679 5679 5679 5679 5680 5680 5681 5682
5615 5616 5617 5619 5621 5623 5625 5627 5629 5631 5633 5635 5637 5639 5641 5643 5645 5646 5648 5649 5650 5651 5652 5653 5655 5656 5657 5658 5659 5660 5660 5661 5662 5663 5663 5664 5664 5664 5665 5665 5665 5665 5665 5665 5665 5665 5665 5665 5664 5664 5664 5664 5665 5666 5666 5666 5666 5667 5669 5670 5670 5670 5670 5670 5670 5670 5670 5671 5671 5671 5672 5673 5674 5675 5676 5675 5674 5675 5676 5676 5677 5677 5677 5678 5679 5680
5612 5613 5614 5616 5618 5620 5622 5624 5626 5628 5630 5632 5635 5637 5639 5641 5642 5644 5645 5646 5647 5648 5649 5650 5651 5653 5654 5655 5656 5657 5658 5658 5659 5660 5660 5660 5661 5661 5661 5661 5661 5661 5661 5661 5661 5661 5661 5660 5660 5660 5660 5660 5660 5660 5661 5660 5660 5661 5664 5665 5665 5665 5666 5666 5666 5666 5665 5666 5666 5667 5667 5668 5669 5671 5671 5670 5670 5671 5673 5673 5674 5674 5674 5675 5676 5677
5609 5610 5612 5613 5616 5618 5620 5622 5623 5626 5628 5630 5632 5634 5636 5638 5640 5641 5642 5643 5644 5645 5646 5648 5649 5651 5652 5653 5654 5654 5655 5656 5656 5657 5657 5657 5658 5658 5658 5658 5658 5657 5657 5657 5657 5657 5656 5656 5656 5656 5656 5656 5656 5656 5656 5656 5655 5656 5658 5659 5660 5660 5660 5660 5661 5661 5661 5661 5661 5662 5662 5663 5664 5665 5666 5665 5666 5667 5668 5669 5670 5671 5671 5671 5672 5672
5607 5608 5610 5611 5613 5615 5617 5619 5621 5623 5626 5628 5630 5632 5634 5636 5637 5638 5640 5641 5642 5643 5645 5646 5647 5648 5649 5650 5651 5652 5653 5654 5654 5654 5655 5655 5655 5655 5655 5655 5655 5655 5654 5654 5654 5653 5653 5653 5652 5652 5651 5651 5651 5652 5651 5651 5651 5651 5652 5654 5654 5655 5655 5655 5655 5656 5656 5656 5656 5657 5658 5658 5659 5660 5660 5661 5662 5662 5663 5664 5665 5666 5667 5667 5667 5667